HELIOS 1A

导读

HELIOS 1A(太阳神-1A)是法国联合研制的欧洲第一代光学侦察卫星,1995年7月7日由阿里安-4火箭发射升空,隶属于法国太阳神卫星系列。 卫星运行于680千米高的太阳同步近圆轨道,发射质量2.5吨,设计寿命5年,地面分辨率达1米,可偏离星下点400千米侧摆成像,主要为合作方提供军事情报支撑,是法国早期空间侦察能力的核心装备。

基本信息
目录编号:
23605
目录名称:
HELIOS 1A
国际标识:
1995-033A
轨道中心:
EARTH
卫星名称:
HELIOS 1A
卫星全名:
HELIOS 1A
卫星状态:
在轨 (已飞行11383 天)
发射日期:
1995-07-07 UTC
国别 :
法国 (FR)
星等 :
--
轨道信息
数据来源 国际轨道数据
星历时间: 2026-09-05T14:26:59+0800
9小时前
查看轨道信息
半长轴: 6926.288km
偏心率: 0.0013102
轨道倾角: 98.184°
近地点辐角 120.028°
升交点赤经 143.521°
平近点角 240.225°
近地点: 539.076km
远地点: 557.226km
周期: 95.612分钟
每日圈数: 15.060938
详细信息
使用方式:
暂无
2D轨道图
3D轨道图
轨道高度分析图
轨道倾角分析图
轨道综合分析图
查看轨道综合分析图
交会数据列表
事件ID 空间交会对象 最接近时刻(TCA) 交会距离 交会风险概率(CRP) 交会风险指数(CRI) 操作
CDM_260905-222802-360506-954424
OBJECT G (69544)
2026-09-05T
22:28:09+0000
0.569 km
远距离
1.522465E-4 高风险 0.79
CDM_260905-194200-046102-360524
2026-09-05T
19:42:54+0000
1.416 km
极远距离
6.006801E-6 低风险 0.51
CDM_260908-035802-360506-561222
2026-09-08T
03:58:49+0000
1.722 km
极远距离
4.369391E-6 低风险 0.48
CDM_260903-021502-360504-004629
2026-09-03T
02:15:42+0000
1.842 km
极远距离
2.869432E-6 低风险 0.44
CDM_260905-224102-360505-906824
OBJECT T (59068)
2026-09-05T
22:41:59+0000
1.988 km
极远距离
2.864463E-6 低风险 0.44